Miscellaneous Local Product
Issued by NWS North Platte, NE

Home | Current Version | Previous Version | Text Only | Print | Product List | Glossary On
Versions: 1 2 3 4 5 6 7 8 9 10 11 12 13 14 15 16 17 18 19 20 21 22 23 24 25 26 27 28 29 30 31 32 33 34 35 36 37 38 39 40 41 42 43 44 45 46 47 48 49 50
000
AXUS43 KLBF 310310
MISLBF


WESTERN AND NORTH CENTRAL NEBRASKA HOURLY WEATHER ROUNDUP
NATIONAL WEATHER SERVICE NORTH PLATTE NE
1000 PM CDT SAT AUG 30 2014

***STATIONS NOT REPORTING VARIABLES SUCH AS SKY/WEATHER OR
PRESSURE ARE PROVIDED BY THE NEBRASKA DEPARTMENT OF
ROADS...RAWS...AND APRS NETWORKS...AND ARE NOT UNDER
NATIONAL WEATHER SERVICE QUALITY CONTROL***

...OBSERVATIONS IN AND NEAR THE EASTERN PANHANDLE OF NEBRASKA...

CITY           SKY/WX    TMP DP  RH WIND       PRES   REMARKS
PINE RIDGE     LGT RAIN  64  60  87 SE9       29.77F
CHADRON        LGT RAIN  70  56  61 SW14G30   29.77R
ALLIANCE       CLOUDY    73  49  42 S16       29.87R
SIDNEY         CLOUDY    75  47  36 NW18      29.92R
WHITECLAY        N/A     65  56  71 E5          N/A
RUSHVILLE        N/A     71  51  47 W29         N/A
GORDON           N/A     71  56  57 W13         N/A
CRESCENT LAKE    N/A     76  46  34 W12G18      N/A
LISCO            N/A     73  54  49 W16         N/A
BIG SPRINGS      N/A     73  59  60 S5          N/A
$$

...OBSERVATIONS IN NORTH CENTRAL NEBRASKA...

CITY           SKY/WX    TMP DP  RH WIND       PRES   REMARKS
VALENTINE      CLEAR     75  63  66 S14       29.75R
THEDFORD       CLEAR     73  64  73 SE10      29.80S
AINSWORTH      CLEAR     71  64  78 S12       29.78R
O`NEILL        CLEAR     72  67  84 SE10G17   29.80F
ORD            CLEAR     72  67  84 SE10      29.80S
BROKEN BOW     CLEAR     71  65  81 SE8       29.82R
SPRINGVIEW       N/A     72  65  78 CALM        N/A
ROSE             N/A     75  71  88 E15         N/A
NEWPORT          N/A     73  68  84 SE10        N/A
COMSTOCK         N/A     77  71  84 S10         N/A
CHAMBERS         N/A     69  66  90 S5          N/A
EWING            N/A     68  65  90 CALM        N/A
$$

...OBSERVATIONS IN SOUTHWEST NEBRASKA AND FAR NORTHEAST COLORADO...

CITY           SKY/WX    TMP DP  RH WIND       PRES   REMARKS
WRAY             N/A     71  53  52 E8        29.85R
HOLYOKE        FAIR      68  55  64 S8        29.85R
IMPERIAL       PTCLDY    75  55  49 S14       29.83R
OGALLALA       PTCLDY    73  55  52 S12G17    29.81R
NORTH PLATTE   CLEAR     68  64  87 E10       29.81R
MCCOOK         CLEAR     77  54  44 S13       29.82R
LEXINGTON      CLEAR     73  65  77 SE9       29.82S
PAXTON           N/A     73  57  57 S7          N/A
SUTHERLAND       N/A     78  61  55 S9          N/A
BRADY            N/A     70  64  82 CALM        N/A
GOTHENBURG       N/A     71  62  74 CALM        N/A
CALLAWAY         N/A     70  65  84 SE9         N/A
$$

...SOME WEATHER OBSERVATIONS FROM AROUND THE REGION...

CITY           SKY/WX    TMP DP  RH WIND       PRES   REMARKS
DENVER         CLOUDY    69  47  45 W10       30.05R
LARAMIE        MOCLDY    50  46  86 SW7       30.07R
CHEYENNE       CLOUDY    62  46  55 SW7       30.02F
SCOTTSBLUFF    CLOUDY    74  50  42 S5        29.87R
RAPID CITY     MOCLDY    72  54  53 N32G44    29.73R
PIERRE         PTCLDY    69  62  78 SE21      29.66S
WINNER         FAIR      73  64  73 SE15      29.72S
SIOUX FALLS    CLEAR     65  61  87 S7        29.85R
OMAHA          CLEAR     72  64  76 SE8       29.87S
GRAND ISLAND   CLEAR     75  65  70 SE14      29.84S
KANSAS CITY    CLEAR     75  68  78 SE8       29.91R
WICHITA        CLEAR     76  61  59 S7        29.89R
HAYS           CLEAR     77  55  47 S14       29.87R
LIBERAL        MOCLDY    81  54  39 SE12      29.93R
GOODLAND       CLEAR     75  56  51 S15       29.89R
$$



USA.gov is the U.S. government's official web portal to all federal, state and local government web resources and services.